Probability
0 0 0 0 0 0 0 0 0 0 0 0 0 0 0 0 0 0 0 0 0 0 0 0 0 0 0 0 0 0 0 0 0 0 0 0 0 0 0 0 0 0 0
0 0 0 0 0 0 0 0 0 0 0 0 0 0 0 0 0 0 0 0 0 0 0 0 0 0 0 0 0 0 0 0 0 0 0 0 0 0 0 0 0 0 0
0 0 0 0 0 0 0 0 0 0 0 0 0 0 0 0 0 0 0 0 0 0 0 0 0 0 0 0 0 0 0 0 0 0 0 0 0 0 0 0 0 0 0
0 0 0 0 0 0 0 0 0 0 0 0 0 0 0 0 0 0 0 0 0 0 0 0 0 0 0 0 0 0 0 0 0 0 0 0 0 0 0 0 0 0 0
0 0 0 0 0 0 0 0 0 0 0 0 0 0 0 0 0 0 0 0 0 0 0 0 0 0 0 0 0 0 0 0 0 0 0 0 0 0 0 0 0 0 0
0 0 0 0 0 0 0 0 0 0 0 0 0 0 0 0 0 0 0 0 0 0 0 0 0 0 0 0 0 0 0 0 0 0 0 0 0 0 0 0 0 0 0
0 0 0 0 0 0 0 0 0 0 0 0 0 0 0 0 0 0 0 0 0 0 0 0 0 0 0 0 0 0 0 0 0 0 0 0 0 0 0 0 0 0 0
0 0 0 0 0 0 0 0 0 0 0 0 0 0 0 0 0 0 0 0 0 0 0 0 0 0 0 0 0 0 0 0 0 0 0 0 0 0 0 0 0 0 0
0 0 0 0 0 0 0 0 0 0 0 0 0 0 0 0 0 0 0 0 0 0 0 0 0 0 0 0 0 0 0 0 0 0 0 0 0 0 0 0 0 0 0
0 0 0 0 0 0 0 0 0 0 0 0 0 0 0 0 0 0 0 0 0 0 0 0 0 0 0 0 0 0 0 0 0 0 0 0 0 0 0 0 0 0 0
0 0 0 0 0 0 0 0 0 0 0 0 0 0 0 0 0 0 0 0 0 0 0 0 0 0 0 0 0 0 0 0 0 0 0 0 0 0 0 0 0 0 0
0 0 0 0 0 0 0 0 0 0 0 0 0 0 0 0 0 0 0 0 0 0 0 0 0 0 0 0 0 0 0 0 0 0 0 0 0 0 0 0 0 0 0
0 0 0 0 0 0 0 0 0 0 0 0 0 0 0 0 0 0 0 0 0 0 0 0 0 0 0 0 0 0 0 0 0 0 0 0 0 0 0 0 0 0 0
0 0 0 0 0 0 0 0 0 0 0 0 0 0 0 0 0 0 0 0 0 0 0 0 0 0 0 0 0 0 0 0 0 0 0 0 0 0 0 0 0 0 0
0 0 0 0 0 0 0 0 0 0 0 0 0 0 0 0 0 0 0 0 0 0 0 0 0 0 0 0 0 0 0 0 0 0 0 0 0 0 0 0 0 0 0
0 0 0 0 0 0 0 0 0 0 0 0 0 0 0 0 0 0 0 0 0 0 0 0 0 0 0 0 0 0 0 0 0 0 0 0 0 0 0 0 0 0 0
0 0 0 0 0 0 0 0 0 0 0 0 0 0 0 0 0 0 0 0 0 0 0 0 0 0 0 0 0 0 0 0 0 0 0 0 0 0 0 0 0 0 0
0 0 0 0 0 0 0 0 0 0 0 0 0 0 0 0 0 0 0 0 0 0 0 0 0 0 0 0 0 0 0 0 0 0 0 0 0 0 0 0 0 0 0
0 0 0 0 0 0 0 0 0 0 0 0 0 0 0 0 0 0 0 0 0 0 0 0 0 0 0 0 0 0 0 0 0 0 0 0 0 0 0 0 0 0 0
0 0 0 0 0 0 0 0 0 0 0 0 0 0 0 0 0 0 0 0 0 0 0 0 0 0 0 0 0 0 0 0 0 0 0 0 0 0 0 0 0 0 0
0 0 0 0 0 0 0 0 0 0 0 0 0 0 0 0 0 0 0 0 0 0 0 0 0 0 0 0 0 0 0 0 0 0 0 0 0 0 0 0 0 0 0
0 0 0 0 0 0 0 0 0 0 0 0 0 0 0 0 0 0 0 0 0 0 0 0 0 0 0 0 0 0 0 0 0 0 0 0 0 0 0 0 0 0 0
0 0 0 0 0 0 0 0 0 0 0 0 0 0 0 0 0 0 0 0 0 0 0 0 0 0 0 0 0 0 0 0 0 0 0 0 0 0 0 0 0 0 0
0 0 0 0 0 0 0 0 0 0 0 0 0 0 0 0 0 0 0 0 0 0 0 0 0 0 0 0 0 0 0 0 0 0 0 0 0 0 0 0 0 0 0
0 0 0 0 0 0 0 0 0 0 0 0 0 0 0 0 0 0 0 0 0 0 0 0 0 0 0 0 0 0 0 0 0 0 0 0 0 0 0 0 0 0 0
0 0 0 0 0 0 0 0 0 0 0 0 0 0 0 0 0 0 0 0 0 0 0 0 0 0 0 0 0 0 0 0 0 0 0 0 0 0 0 0 0 0 0
Wind_Speed
4 4 7 10 10 10 10 10 10 11 12 14 15 16 16 16 16 16 15 16 16 17 18 18 18 19 19 19 19 20 20 20 20 20 20 21 21 21 21 21 19 15 23
7 5 9 11 11 11 10 10 10 11 12 13 15 16 16 16 16 15 15 15 16 17 17 18 18 19 19 18 19 19 19 19 19 18 18 18 20 21 21 21 20 15 22
9 7 8 11 12 11 11 10 10 11 12 13 15 16 16 16 16 15 15 15 15 16 17 17 18 18 18 18 18 18 19 19 18 18 16 9 13 21 22 21 22 22 22
10 7 8 11 12 12 11 11 10 11 11 12 15 16 16 16 15 15 15 14 15 16 16 17 17 18 17 17 18 18 18 18 18 16 9 8 10 20 22 22 22 22 21
8 7 9 11 12 12 12 11 11 11 11 12 14 16 16 15 15 14 14 14 14 15 16 17 17 17 17 17 17 18 18 18 17 13 9 9 9 19 21 21 21 21 21
8 7 9 12 13 12 12 12 11 11 11 13 14 15 15 15 14 14 14 14 14 14 15 16 17 16 16 17 17 17 17 17 13 8 8 8 8 18 19 20 20 19 20
8 7 8 11 12 12 12 12 12 11 12 12 13 14 15 14 14 13 13 13 13 14 15 15 16 16 16 16 17 17 17 17 10 8 7 7 11 18 19 19 19 19 19
8 7 7 10 11 11 11 11 11 11 11 12 13 14 14 14 13 13 13 13 13 13 14 15 16 16 16 16 16 16 15 13 10 8 7 7 14 17 17 17 17 17 18
7 7 6 6 7 9 10 9 9 9 10 11 12 13 12 12 13 12 11 12 13 13 14 14 15 15 15 15 16 16 15 14 7 5 6 6 14 16 16 16 16 16 17
7 7 6 6 5 5 6 9 9 9 9 10 11 11 11 11 11 10 9 11 12 12 13 14 14 14 15 15 15 14 13 10 6 6 4 7 14 15 15 15 15 15 16
8 7 7 6 6 5 5 7 8 8 9 10 9 11 9 5 6 6 7 10 11 12 12 13 14 14 13 13 13 13 9 4 5 4 3 10 13 14 14 14 14 14 14
12 10 8 7 7 6 5 4 4 4 5 5 5 6 5 4 4 5 8 9 9 10 12 12 13 11 8 5 7 9 4 5 4 3 4 11 12 13 13 13 13 13 13
11 11 10 9 8 7 5 4 3 3 3 4 5 5 5 4 3 4 3 4 5 6 5 7 6 4 4 3 4 4 4 3 2 2 3 10 11 12 12 12 11 11 11
10 12 11 10 9 8 6 5 4 4 4 4 5 6 5 4 3 3 3 3 3 3 4 3 3 4 4 4 4 4 4 3 2 2 2 7 9 11 11 11 11 10 10
11 12 12 11 11 10 7 6 6 5 5 5 5 5 6 5 5 4 3 3 3 3 4 4 4 4 4 4 3 4 4 3 3 2 1 3 6 9 10 10 10 10 9
13 12 11 12 12 11 9 8 7 6 5 5 5 6 6 5 5 5 4 4 3 3 3 4 4 4 3 3 3 3 3 2 2 2 1 1 2 6 9 10 10 10 9
11 10 11 12 12 12 12 10 7 6 6 6 6 7 7 6 7 6 5 5 4 4 5 4 4 3 3 3 3 2 2 1 1 1 1 0 0 2 6 10 11 10 10
8 9 11 9 12 13 12 10 8 7 7 7 6 7 8 8 8 7 6 6 5 5 5 4 4 3 3 3 2 1 1 0 0 0 1 1 1 1 2 7 10 11 11
9 9 11 12 13 13 12 9 8 7 8 7 7 7 9 10 9 8 7 6 7 6 5 5 3 3 3 3 2 1 0 1 1 1 2 2 2 2 2 4 6 9 12
8 9 10 11 12 11 9 8 7 8 8 7 8 9 10 10 11 9 7 7 8 6 6 6 5 3 3 4 2 1 1 2 2 3 4 3 3 3 3 3 3 4 10
9 10 12 13 12 10 9 10 10 10 8 7 8 9 12 11 12 11 8 8 8 8 9 9 5 5 3 3 3 1 2 3 4 5 4 4 5 5 4 4 3 3 4
10 12 12 14 12 13 11 9 6 5 5 7 6 8 11 12 12 11 12 10 10 9 9 10 7 6 5 6 5 3 3 4 7 8 6 7 7 5 6 7 6 6 5
8 10 11 12 12 12 10 5 3 3 2 4 7 8 10 11 12 12 13 11 11 11 11 13 13 12 9 9 6 6 5 8 3 3 7 9 8 7 8 7 9 8 8
5 5 7 8 8 8 8 8 10 9 10 9 7 6 7 10 11 12 12 13 12 11 11 12 14 11 9 9 7 7 5 2 4 4 3 6 9 11 12 10 10 9 8
3 1 2 3 4 5 7 9 9 10 9 4 3 5 7 7 9 10 11 11 12 11 12 12 13 13 11 11 9 6 7 4 3 4 6 4 5 10 12 11 9 9 10
6 5 3 2 1 2 4 6 8 9 7 5 5 5 5 5 6 8 9 10 10 10 11 12 13 15 13 12 10 8 7 6 8 9 12 8 6 6 8 9 10 11 10
Wind_Direction
157 158 140 129 122 115 110 105 100 98 100 103 104 100 97 94 90 88 87 87 87 86 85 83 81 80 79 78 78 77 76 75 75 77 79 80 79 78 77 74 71 68 73
146 149 139 129 123 118 114 110 105 103 103 106 107 103 100 97 94 92 90 90 90 89 88 87 85 84 83 82 81 79 78 75 72 71 72 76 79 79 78 78 77 76 75
135 139 133 127 125 122 119 114 110 108 107 107 108 106 102 100 97 96 94 93 91 90 89 90 89 87 85 84 83 81 79 76 72 68 64 57 74 78 77 75 75 76 75
136 136 134 130 129 127 124 118 113 110 108 108 110 108 104 102 100 99 98 96 92 90 90 91 91 89 87 86 84 82 79 76 71 66 55 54 67 76 75 73 72 72 73
133 133 136 135 134 132 128 122 117 113 110 111 111 109 106 104 102 101 100 96 92 91 91 92 93 91 90 88 86 84 82 78 71 62 54 56 64 75 75 74 72 72 72
133 133 141 140 139 136 132 127 124 120 115 114 113 110 108 106 105 103 101 97 93 92 93 94 94 93 92 90 88 87 84 79 68 58 57 60 69 80 80 78 77 76 75
137 138 146 143 142 140 138 134 130 126 120 117 115 113 111 110 108 107 105 101 96 95 96 97 97 94 92 92 90 88 85 82 72 62 61 65 78 83 83 82 81 80 79
142 142 146 146 145 145 143 138 135 131 126 122 120 118 117 116 114 113 111 107 103 100 100 100 98 97 95 94 92 89 85 82 79 72 68 73 85 86 85 85 85 84 83
142 143 144 146 147 148 144 140 136 132 128 125 124 122 121 120 118 115 114 113 111 107 105 104 102 101 100 97 95 92 88 84 75 74 77 80 92 91 90 89 88 88 87
150 153 150 148 146 143 143 143 139 134 129 124 119 116 116 115 115 112 112 116 116 112 111 108 105 104 102 100 97 93 86 78 72 72 74 93 96 96 95 94 93 92 91
169 169 162 157 152 147 145 147 142 136 130 123 119 119 110 104 105 107 119 121 120 117 115 112 108 105 102 100 97 92 82 71 76 76 87 105 104 102 101 99 98 97 96
184 183 177 170 162 154 150 141 139 132 130 126 127 123 114 113 112 113 121 121 120 118 118 117 112 106 98 87 89 87 76 76 72 73 110 116 114 111 108 106 105 104 102
187 186 185 180 171 164 156 152 147 136 133 135 138 134 126 118 114 107 109 110 105 103 98 105 98 90 94 96 92 86 83 77 71 61 111 123 124 122 119 117 114 111 109
186 192 189 184 180 176 167 168 164 159 158 158 157 150 144 139 137 136 130 125 113 107 109 103 104 103 97 96 101 101 93 86 80 68 88 126 136 135 133 130 126 122 119
193 195 193 188 187 184 178 179 179 179 177 170 165 167 162 159 160 154 148 141 134 127 129 127 124 122 115 105 98 104 104 99 95 86 73 117 150 152 149 146 142 139 136
201 197 193 193 192 189 190 190 190 187 181 175 179 180 174 168 167 165 162 160 156 151 144 141 140 135 128 122 114 109 109 104 97 95 73 83 149 170 168 165 161 158 155
202 196 194 196 195 196 198 198 196 192 186 188 189 185 183 178 175 174 175 178 173 156 143 133 129 124 131 130 127 118 107 100 116 109 84 22 300 200 187 184 179 176 175
196 196 197 194 198 201 202 201 201 198 196 197 192 190 191 187 181 180 185 190 171 159 158 156 152 146 156 156 152 143 118 94 332 301 301 281 278 272 227 203 199 194 192
202 197 196 197 200 203 203 202 204 202 203 201 196 196 196 195 191 190 195 189 171 170 170 171 168 160 169 169 157 141 172 223 255 272 257 253 258 252 251 231 218 213 206
208 202 201 202 203 199 199 202 206 210 210 206 203 201 197 200 198 198 199 189 177 177 180 183 173 159 156 155 146 162 282 269 258 246 243 242 246 247 243 246 236 235 224
211 208 208 206 205 195 198 205 210 216 213 209 208 203 201 201 200 202 200 193 188 193 194 187 168 164 156 141 127 232 273 251 249 241 233 236 238 237 238 236 233 231 237
216 216 214 213 206 202 206 205 204 203 206 209 205 207 206 204 202 203 204 200 196 198 193 186 173 172 172 177 171 167 243 268 241 231 221 227 233 230 233 227 225 225 226
223 219 216 215 211 207 204 182 166 167 178 199 209 213 210 208 206 206 207 205 201 199 200 196 193 187 193 196 191 178 187 230 235 241 227 227 225 225 231 229 226 223 219
246 232 220 216 210 204 191 191 196 206 218 220 215 213 207 208 211 210 210 209 206 205 205 201 200 199 191 199 209 224 223 183 195 262 247 232 226 229 229 226 225 225 222
348 318 223 203 201 192 190 198 205 219 228 222 201 208 212 213 215 215 214 214 213 211 210 204 201 203 205 206 199 198 215 223 219 234 262 242 230 233 229 225 222 220 220
28 33 40 85 112 157 182 197 210 222 226 220 213 216 219 221 223 223 219 220 220 218 214 210 206 208 212 216 212 201 190 194 204 214 239 240 236 237 227 223 222 222 218